Location: Bijele Vode
(45.2833°N, 16.2000°E)
Time: 09:30:32
(UTC+00:00)

CZ-2C R/B - Pass Details

Date: 23 January 2021
Orbit: 390 x 584 km, 35.0° (Epoch: 27 February)

Event Time Altitude Azimuth Distance (km) Brightness Sun altitude
Exits shadow 03:52:32 16° 165° (SSE) 1,479 3.6 -26.6°
Drops below altitude 10° 03:54:51 10° 131° (SE) 1,775 4.5 -26.2°
Sets 03:57:45 0° 108° (ESE) 2,621 6.0 -25.7°
